Ralph M Calhoun Memorial Airport

Jump to: basic info | weather | runways | comments

Related pages: nearby airports | nearby navaids | notams | map

Basic information (top)

Codes: TAL PATA
Location: lon 65.174400, lat -152.108994, elev 236 ft / 72 m msl
Status: small_airport
Scheduled airline service: no
Links: Wikipedia Mobile

Weather (top)

Current conditions (rec'd 2014/07/29 07:52Z):

PATA 290752Z AUTO 06004KT 10SM CLR 11/08 A3010 RMK AO2 SLP195 T01110083 TSNO

Airport forecast (rec'd 2014/07/29 06:30Z):

TAF PATA 290524Z 2906/3006 33005KT P6SM FEW070 SCT120 
     FM290900 VRB04KT P6SM SCT150

Runways (top)

07/25: 4,400 x 150 ft (1,341 x 46 m) — other (GRVL-P) — not lighted

Latest comments (top)

Memorial for what?: As I did not know him personally, I did ... [read]

More... (top)

See also NOTAMs and nearby airports and navaids, or visit the Ralph M Calhoun Memorial Airport page at the main OurAirports website..